SCP
0 0 0 0 0 0 0 0 0 0 0 0 0 0 0 0 0 0 0 0 0 0 0 0 0 0 0 0 0 0 0 0 0 0 0 0 0 0 0 0 0 0 0 0
0 0 0 0 0 0 0 0 0 0 0 0 0 0 0 0 0 0 0 0 0 0 0 0 0 0 0 0 0 0 0 0 0 0 0 0 0 0 0 0 0 0 0 0
0 0 0 0 0 0 0 0 0 0 0 0 0 0 0 0 0 0 0 0 0 0 0 0 0 0 0 0 0 0 0 0 0 0 0 0 0 0 0 0 0 0 0 0
-0 -0 0 0 0 0 0 0 0 0 0 0 0 0 0 0 0 0 0 0 0 0 0 0 0 0 0 0 0 0 0 0 0 0 0 0 0 0 0 0 0 0 0 0
-0 -0 -0 0 0 0 0 0 0 0 0 0 0 0 0 0 0 0 0 0 0 0 0 0 0 0 0 0 0 0 0 0 0 0 0 0 0 0 0 0 0 0 0 0
-0 -0 -0 0 0 0 0 0 0 0 0 0 0 0 0 0 0 0 0 0 0 0 0 0 0 0 0 0 0 0 0 0 0 0 0 0 0 0 0 0 0 0 0 0
0 0 0 0 0 0 0 0 0 0 0 0 0 0 0 0 0 0 0 0 0 0 0 0 0 0 0 0 0 0 0 0 0 0 0 0 0 0 0 0 0 0 0 0
0 0 0 0 0 0 0 0 0 0 0 0 0 0 0 0 0 0 0 0 0 0 0 0 0 0 0 0 0 0 0 0 0 0 0 -0 -0 0 0 0 0 0 0 0
0 0 0 0 0 0 0 0 0 0 0 0 0 0 0 0 0 0 0 0 0 0 0 0 0 0 0 0 0 0 0 0 0 0 0 -0 -0 -0 0 0 0 0 0 0
0 0 0 0 0 0 0 0 0 0 0 0 0 0 0 0 0 0 0 0 0 0 0 0 0 0 0 0 0 0 0 0 0 0 0 -0 -0 -0 0 0 0 0 0 0
0 0 0 0 0 0 0 0 0 0 0 0 0 0 0 0 0 0 0 0 0 0 0 0 0 0 0 0 0 0 0 0 0 0 0 0 -0 -0 0 0 0 0 0 0
0 0 0 0 0 0 0 0 0 0 0 0 0 0 0 0 0 0 0 0 0 0 0 0 0 0 0 0 0 0 0 0 0 0 0 0 0 0 0 0 0 0 0 0
0 0 0 0 0 -0 -0 0 0 0 0 0 0 0 0 0 0 0 0 0 0 0 0 0 0 0 0 0 0 0 0 0 0 0 0 0 0 0 0 0 0 0 0 0
0 0 0 0 0 0 0 0 0 0 0 0 0 0 0 0 0 0 0 0 0 0 0 0 0 0 0 0 0 0 0 0 0 0 0 0 0 0 0 0 0 0 0 0
0 0 0 0 0 0 0 0 0 0 0 0 0 0 0 0 0 0 0 0 0 0 0 0 0 0 0 0 0 0 0 0 0 0 0 0 0 0 0 0 0 0 0 0
0 0 0 0 0 0 0 0 0 0 0 0 0 0 0 0 0 0 0 0 0 0 0 0 0 0 0 0 0 0 0 0 0 0 0 0 0 0 0 0 0 0 0 0
0 0 0 0 0 0 0 0 0 0 0 0 0 0 0 0 0 0 0 0 0 0 0 0 0 0 0 0 0 0 0 0 0 0 0 0 0 0 0 0 0 0 0 0
0 0 0 0 0 0 0 0 0 0 0 0 0 0 0 0 0 0 0 0 0 0 0 0 0 0 0 0 0 0 0 0 0 0 0 0 0 0 0 0 0 0 0 0
0 0 0 0 0 0 0 0 0 0 0 0 0 0 0 0 0 0 0 0 0 -0 0 0 0 0 0 0 0 0 0 0 0 0 0 0 0 0 0 0 0 0 0 0
0 0 0 0 0 0 0 0 0 0 0 0 0 0 0 0 -0 -0 0 0 0 0 0 0 0 0 0 0 0 0 0 0 0 0 0 0 0 0 0 0 0 0 0 0
0 0 0 0 0 0 0 0 0 0 0 0 0 -0 -0 -0 -0 0 0 0 0 0 0 0 0 0 0 0 0 0 0 0 0 0 0 0 0 0 0 0 0 0 0 0
0 0 0 0 0 0 0 0 0 0 0 0 0 -0 -0 -0 0 0 0 0 0 0 0 0 0 0 0 0 0 0 0 0 0 0 0 0 0 0 0 0 0 0 0 0
0 0 0 0 0 0 0 0 0 0 0 0 0 0 0 0 0 0 0 0 0 0 0 0 0 0 0 0 0 0 0 0 0 0 0 0 0 0 0 0 0 0 0 -0
0 0 0 0 0 0 0 0 0 0 0 0 0 0 0 0 0 0 0 0 0 0 0 0 0 0 0 0 0 0 0 0 0 0 0 0 0 0 0 0 0 0 0 0
0 0 0 0 0 0 0 0 0 0 0 0 0 0 0 0 0 0 0 0 0 0 0 0 0 0 0 0 0 0 0 0 0 0 0 0 0 0 0 0 0 0 0 0
0 0 0 0 0 0 0 0 0 0 0 0 0 0 0 0 0 0 0 0 0 0 0 0 0 0 0 0 0 0 0 0 0 0 0 0 0 0 0 0 0 0 0 0
Wind_Speed
2 3 2 5 5 3 3 3 5 6 2 3 7 11 11 6 5 6 5 4 4 4 2 1 1 1 1 1 1 1 1 1 1 0 0 1 1 2 2 1 1 1 1 1
3 2 4 2 3 2 3 4 5 5 1 3 6 10 9 5 5 5 5 5 5 3 1 1 1 1 1 1 1 1 1 1 2 1 1 1 1 1 2 2 1 1 1 1
4 3 1 2 2 2 4 5 5 5 4 1 4 8 4 3 2 2 3 3 3 3 3 2 1 1 1 1 2 2 2 2 2 1 1 1 1 1 2 2 2 2 2 2
2 3 1 1 2 3 5 4 4 3 2 4 1 6 7 3 4 4 3 3 3 3 2 2 2 2 2 2 2 2 2 2 2 2 2 2 2 3 3 2 2 2 2 2
3 1 1 2 3 4 4 1 1 1 2 2 1 4 9 2 4 5 4 4 3 3 3 2 2 3 2 2 2 2 2 2 2 2 3 3 3 3 2 2 3 3 2 3
3 1 1 2 1 1 1 2 2 3 3 4 5 5 9 4 5 5 4 3 3 2 2 2 2 2 2 2 2 2 2 3 3 3 3 4 4 4 3 4 3 3 2 2
5 2 1 1 2 2 3 4 4 5 3 7 2 4 10 5 3 3 4 4 3 2 2 2 2 2 3 3 3 3 3 4 4 4 4 5 5 5 6 5 4 3 3 3
3 5 1 1 1 2 1 4 5 4 5 6 2 7 8 3 2 2 2 2 2 2 2 2 3 3 3 4 4 3 4 5 4 5 5 4 5 4 4 5 4 4 4 4
2 6 2 1 1 2 1 2 2 3 1 3 6 7 9 1 2 4 4 4 3 3 3 3 3 3 3 4 4 4 4 5 5 5 4 4 4 4 5 4 4 3 4 3
3 5 4 2 1 1 1 4 3 3 2 5 6 5 5 4 4 4 5 5 5 4 4 4 4 4 4 4 4 4 4 5 5 5 4 4 4 5 5 4 5 4 4 4
2 2 5 2 3 3 2 2 2 2 3 4 5 8 4 4 2 2 4 5 5 4 4 4 5 5 5 4 4 4 4 4 4 4 4 4 4 4 5 5 5 5 4 4
2 2 4 6 2 1 3 4 5 3 4 4 3 9 2 1 1 2 4 5 5 4 4 4 5 5 5 5 5 5 4 4 4 4 3 3 4 4 5 5 5 5 5 5
2 2 3 6 2 1 1 2 3 2 2 4 5 9 2 3 4 4 5 6 6 5 5 5 5 5 6 6 6 5 5 5 4 3 3 4 4 4 5 5 5 5 5 5
1 3 6 8 6 2 4 3 3 4 4 6 9 11 8 7 7 8 6 6 6 5 5 6 6 6 6 6 6 6 5 5 4 3 3 4 4 4 4 4 4 5 5 5
2 3 5 7 6 3 5 7 5 8 8 8 9 8 10 7 6 6 6 6 6 7 7 7 7 7 7 7 7 6 6 5 5 4 4 4 4 4 4 4 4 4 5 5
1 3 2 5 3 4 6 8 8 9 7 9 9 10 7 5 4 5 6 6 6 7 8 9 9 8 8 7 7 7 7 6 5 4 4 4 4 3 3 3 3 3 4 4
2 2 2 5 4 4 7 7 6 4 4 4 7 8 5 6 7 6 6 6 6 7 8 9 9 8 8 8 7 7 7 6 5 4 4 4 4 4 4 4 3 3 3 3
3 2 2 3 3 6 6 0 2 4 4 4 4 5 5 6 7 5 3 4 6 7 7 8 8 9 8 7 7 7 6 5 5 5 4 4 4 4 4 4 4 3 3 3
2 3 1 1 3 8 5 3 1 2 5 2 4 6 6 5 5 4 2 3 5 6 6 7 7 7 7 7 7 7 6 5 5 6 6 5 4 4 4 4 4 3 3 3
2 2 1 2 2 5 4 4 3 1 4 3 3 5 5 4 5 5 5 6 7 7 6 6 7 7 7 7 7 6 6 6 6 6 6 5 5 4 4 4 4 4 3 3
1 1 2 3 4 7 4 4 2 1 5 6 3 4 3 3 4 6 7 7 6 6 7 6 6 6 7 7 6 6 7 7 7 6 6 6 5 4 4 3 3 3 3 3
3 2 3 2 3 7 2 2 1 4 5 4 4 3 3 4 5 5 6 6 6 7 7 6 6 7 7 7 6 7 8 8 7 6 6 6 6 5 4 4 4 3 3 3
3 4 3 5 5 3 0 2 3 3 5 5 4 4 3 4 5 5 5 5 5 6 6 6 6 7 7 7 6 7 8 8 7 7 7 7 6 5 5 4 4 3 3 2
2 1 2 4 5 5 4 4 5 5 5 6 5 5 4 4 5 5 5 5 5 5 5 5 6 7 8 8 7 6 7 7 6 7 7 6 6 6 6 5 4 3 3 3
3 1 2 5 6 6 4 4 6 6 6 6 5 4 4 3 4 4 4 5 5 5 5 5 5 6 7 7 7 8 7 7 6 6 6 6 5 5 5 5 4 4 3 4
1 2 2 4 4 4 7 6 6 6 7 6 5 5 5 3 4 4 4 4 5 5 5 5 5 6 7 7 7 7 7 6 6 6 5 4 4 4 4 4 5 7 7 8
Wind_Direction
30 78 190 214 204 201 191 216 258 262 243 227 245 263 274 268 246 242 240 237 233 235 235 196 172 157 144 156 165 182 172 201 186 266 291 303 294 304 296 276 252 224 221 245
45 250 233 206 198 208 213 247 264 281 268 240 273 274 270 254 230 227 224 229 233 239 255 217 169 138 173 201 204 205 208 221 228 245 255 249 254 267 271 265 263 233 212 223
198 242 235 173 178 215 229 223 247 273 317 297 317 294 273 265 256 273 248 234 231 231 236 240 229 225 235 250 226 239 245 250 251 246 260 313 305 294 290 284 279 256 223 213
241 271 245 189 212 191 251 234 239 266 311 287 7 287 279 272 296 288 280 271 256 256 251 242 245 246 246 263 265 256 250 254 253 229 227 231 237 246 254 257 258 262 234 215
276 291 228 234 236 192 235 303 227 221 190 292 252 235 280 311 287 282 273 266 266 253 238 243 259 257 276 288 282 277 267 267 254 237 233 237 244 246 253 255 242 247 238 224
268 309 240 244 295 192 169 47 66 60 83 264 222 196 273 242 240 272 276 278 282 277 272 282 294 300 301 304 298 294 273 274 265 247 238 235 235 237 243 249 235 240 235 226
323 307 356 34 26 10 57 72 14 346 341 254 201 216 250 248 248 251 275 287 293 290 286 300 313 312 307 300 295 291 281 270 261 251 241 236 236 230 230 236 226 229 233 228
330 298 287 340 159 208 206 148 164 224 249 283 262 237 256 260 301 298 283 286 314 321 310 305 302 301 300 294 293 286 278 273 258 251 246 237 236 233 236 234 227 227 232 230
258 276 323 1 13 141 153 188 170 150 260 278 269 280 297 259 347 355 355 356 340 323 317 315 320 318 305 295 294 288 279 279 267 258 250 239 232 233 237 239 227 230 233 233
190 273 289 310 51 32 136 148 107 136 212 271 286 271 261 289 300 326 340 335 327 332 333 329 323 318 310 299 299 301 286 278 278 269 253 252 239 239 239 237 228 228 231 234
165 231 297 324 208 206 139 157 157 163 180 195 270 272 241 236 267 296 312 320 320 325 325 322 322 319 317 315 308 305 300 292 284 273 264 260 250 244 242 239 232 228 232 234
164 159 268 262 258 209 188 194 164 186 239 207 230 269 297 241 309 317 324 327 326 324 324 324 326 328 328 325 319 307 304 300 288 280 271 265 263 252 246 241 237 232 232 234
158 145 318 328 336 5 255 226 198 176 169 195 214 261 326 352 342 337 335 332 332 332 335 338 337 331 325 321 317 313 310 306 304 295 283 275 271 261 250 246 241 235 233 235
131 185 205 232 250 233 257 248 199 176 212 231 232 259 295 316 321 328 332 331 327 328 331 334 330 324 322 321 320 318 314 310 308 300 288 278 276 271 268 259 245 239 235 236
110 237 240 259 270 254 250 255 223 211 221 231 255 259 280 298 302 311 320 327 334 338 339 333 327 323 322 325 325 323 318 314 312 300 291 284 284 286 284 272 254 244 238 240
140 245 274 276 258 258 271 266 246 237 238 246 266 276 287 311 325 325 324 328 330 332 333 332 332 329 326 326 325 325 324 323 318 307 303 307 310 305 296 285 271 255 246 246
202 195 265 276 305 314 278 257 227 221 226 216 246 267 310 321 321 314 313 321 319 321 327 329 329 328 325 323 322 321 320 323 325 319 317 320 316 311 309 305 296 278 266 255
194 199 231 289 347 257 247 324 212 220 259 234 252 281 300 295 300 302 299 306 314 322 326 326 327 326 324 325 329 328 326 330 331 330 330 324 322 316 316 309 300 294 285 275
193 180 205 233 273 277 304 339 348 242 278 278 277 300 317 330 324 315 338 335 316 318 318 319 321 320 324 329 332 333 333 337 338 334 330 327 325 321 320 315 311 306 301 295
47 114 167 195 238 259 288 323 315 247 292 338 322 310 320 344 325 306 340 338 331 331 330 330 332 333 335 333 336 341 340 344 339 331 328 329 328 323 318 314 314 315 314 307
24 5 220 226 240 265 290 316 355 72 291 322 319 312 312 280 267 298 323 328 331 332 333 338 339 339 335 334 343 347 347 342 332 331 334 335 335 329 323 324 325 329 332 337
188 195 219 199 233 267 331 56 178 261 305 317 316 313 305 293 302 314 323 327 333 337 340 345 344 341 339 344 353 353 346 336 337 341 343 344 344 340 344 347 345 346 348 348
204 204 208 203 228 282 290 261 289 315 309 311 311 310 308 307 310 319 323 324 330 336 336 340 341 340 343 350 358 351 337 339 345 350 350 349 350 353 355 354 350 351 357 354
287 305 237 264 278 294 295 304 319 320 308 309 311 310 310 303 305 312 317 323 329 333 334 337 344 345 342 345 349 343 337 342 348 351 348 350 355 358 1 359 357 359 355 351
280 284 280 273 301 317 321 333 327 327 329 330 332 326 316 311 311 313 317 322 326 330 332 337 341 337 334 339 344 344 344 346 350 351 350 353 357 358 359 2 3 359 360 351
278 216 230 263 288 288 299 318 330 331 332 332 338 340 338 329 316 321 320 321 325 328 331 336 338 336 334 338 341 341 343 345 348 352 354 353 352 355 358 359 360 4 3 2